Time,TemperatureF,DewpointF,PressureIn,WindDirection,WindDirectionDegrees,WindSpeedMPH,WindSpeedGustMPH,Humidity,HourlyPrecipIn,Conditions,Clouds,dailyrainin,SolarRadiationWatts/m^2,SoftwareType,DateUTC
2013-04-27 00:02:00,38.5,31.3,30.44,WNW,298,0.0,0.0,75,0.00,,,0.00,0.0,meteohub,2013-04-27 04:02:00,
2013-04-27 00:04:00,38.5,31.3,30.44,WNW,298,0.0,0.0,75,0.00,,,0.00,0.0,meteohub,2013-04-27 04:04:00,
2013-04-27 00:06:00,38.5,31.3,30.45,WNW,298,0.0,0.0,75,0.00,,,0.00,0.0,meteohub,2013-04-27 04:06:00,
2013-04-27 00:07:00,38.3,31.1,30.45,WNW,298,0.0,0.0,75,0.00,,,0.00,0.0,meteohub,2013-04-27 04:07:00,
2013-04-27 00:12:00,38.3,31.1,30.45,WNW,298,0.0,0.0,75,0.00,,,0.00,0.0,meteohub,2013-04-27 04:12:00,
2013-04-27 00:14:00,38.3,31.1,30.45,WNW,298,0.0,0.0,75,0.00,,,0.00,0.0,meteohub,2013-04-27 04:14:00,
2013-04-27 00:19:00,38.1,31.3,30.45,WNW,298,0.0,0.0,76,0.00,,,0.00,0.0,meteohub,2013-04-27 04:19:00,
2013-04-27 00:24:00,37.9,31.1,30.45,WNW,298,0.0,0.0,76,0.00,,,0.00,0.0,meteohub,2013-04-27 04:24:00,
2013-04-27 00:30:00,37.9,31.5,30.45,WNW,298,0.0,0.0,77,0.00,,,0.00,0.0,meteohub,2013-04-27 04:30:00,
2013-04-27 00:35:00,37.8,31.3,30.45,WNW,298,0.0,0.0,77,0.00,,,0.00,0.0,meteohub,2013-04-27 04:35:00,
2013-04-27 00:40:00,37.8,31.5,30.45,WNW,298,0.0,0.0,78,0.00,,,0.00,0.0,meteohub,2013-04-27 04:40:00,
2013-04-27 00:45:00,37.8,31.5,30.45,WNW,298,0.0,0.0,78,0.00,,,0.00,0.0,meteohub,2013-04-27 04:45:00,
2013-04-27 00:51:00,37.8,31.5,30.45,WNW,298,0.0,0.0,78,0.00,,,0.00,0.0,meteohub,2013-04-27 04:51:00,
2013-04-27 00:56:00,37.6,31.3,30.45,WNW,298,0.0,0.0,78,0.00,,,0.00,0.0,meteohub,2013-04-27 04:56:00,
2013-04-27 01:01:00,37.6,31.6,30.45,WNW,298,0.0,0.0,79,0.00,,,0.00,0.0,meteohub,2013-04-27 05:01:00,
2013-04-27 01:07:00,37.6,31.6,30.45,WNW,298,0.0,0.0,79,0.00,,,0.00,0.0,meteohub,2013-04-27 05:07:00,
2013-04-27 01:12:00,37.4,31.5,30.45,WNW,298,0.0,0.0,79,0.00,,,0.00,0.0,meteohub,2013-04-27 05:12:00,
2013-04-27 01:17:00,37.2,31.6,30.45,WNW,298,0.0,0.0,80,0.00,,,0.00,0.0,meteohub,2013-04-27 05:17:00,
2013-04-27 01:22:00,37.2,31.6,30.45,WNW,298,0.0,0.0,80,0.00,,,0.00,0.0,meteohub,2013-04-27 05:22:00,
2013-04-27 01:27:00,37.0,31.5,30.45,WNW,298,0.0,0.0,80,0.00,,,0.00,0.0,meteohub,2013-04-27 05:27:00,
2013-04-27 01:32:00,37.0,31.8,30.45,WNW,298,0.0,0.0,81,0.00,,,0.00,0.0,meteohub,2013-04-27 05:32:00,
2013-04-27 01:37:00,37.0,31.8,30.45,WNW,298,0.0,0.0,81,0.00,,,0.00,0.0,meteohub,2013-04-27 05:37:00,
2013-04-27 01:42:00,36.9,31.6,30.45,WNW,298,0.0,0.0,81,0.00,,,0.00,0.0,meteohub,2013-04-27 05:42:00,
2013-04-27 01:47:00,36.7,31.5,30.44,WNW,298,0.0,0.0,81,0.00,,,0.00,0.0,meteohub,2013-04-27 05:47:00,
2013-04-27 01:52:00,36.5,31.5,30.44,WNW,298,0.0,0.0,82,0.00,,,0.00,0.0,meteohub,2013-04-27 05:52:00,
2013-04-27 01:57:00,36.3,31.3,30.44,WNW,298,0.0,0.0,82,0.00,,,0.00,0.0,meteohub,2013-04-27 05:57:00,
2013-04-27 02:02:00,36.1,31.1,30.44,WNW,298,0.0,0.0,82,0.00,,,0.00,0.0,meteohub,2013-04-27 06:02:00,
2013-04-27 02:07:00,36.1,31.5,30.44,WNW,298,0.0,0.0,83,0.00,,,0.00,0.0,meteohub,2013-04-27 06:07:00,
2013-04-27 02:12:00,36.0,31.3,30.44,WNW,298,0.0,0.0,83,0.00,,,0.00,0.0,meteohub,2013-04-27 06:12:00,
2013-04-27 02:17:00,36.0,31.3,30.43,WNW,298,0.0,0.0,83,0.00,,,0.00,0.0,meteohub,2013-04-27 06:17:00,
2013-04-27 02:22:00,35.8,31.1,30.43,WNW,298,0.0,0.0,83,0.00,,,0.00,0.0,meteohub,2013-04-27 06:22:00,
2013-04-27 02:27:00,35.6,31.3,30.44,WNW,298,0.0,0.0,84,0.00,,,0.00,0.0,meteohub,2013-04-27 06:27:00,
2013-04-27 02:32:00,35.4,31.1,30.43,WNW,298,0.0,0.0,84,0.00,,,0.00,0.0,meteohub,2013-04-27 06:32:00,
2013-04-27 02:37:00,35.2,30.9,30.43,WNW,298,0.0,0.0,84,0.00,,,0.00,0.0,meteohub,2013-04-27 06:37:00,
2013-04-27 02:42:00,35.1,30.9,30.43,WNW,298,0.0,0.0,85,0.00,,,0.00,0.0,meteohub,2013-04-27 06:42:00,
2013-04-27 02:47:00,34.9,30.9,30.43,WNW,298,0.0,0.0,85,0.00,,,0.00,0.0,meteohub,2013-04-27 06:47:00,
2013-04-27 02:52:00,34.7,30.7,30.43,WNW,298,0.0,0.0,85,0.00,,,0.00,0.0,meteohub,2013-04-27 06:52:00,
2013-04-27 02:57:00,34.5,30.6,30.43,WNW,298,0.0,1.0,85,0.00,,,0.00,0.0,meteohub,2013-04-27 06:57:00,
2013-04-27 03:02:00,34.3,30.4,30.43,WNW,298,0.0,1.0,85,0.00,,,0.00,0.0,meteohub,2013-04-27 07:02:00,
2013-04-27 03:07:00,34.3,30.6,30.43,WNW,298,0.0,1.0,86,0.00,,,0.00,0.0,meteohub,2013-04-27 07:07:00,
2013-04-27 03:12:00,34.2,30.4,30.43,WNW,298,0.0,0.0,86,0.00,,,0.00,0.0,meteohub,2013-04-27 07:12:00,
2013-04-27 03:17:00,34.2,30.4,30.43,WNW,298,0.0,0.0,86,0.00,,,0.00,0.0,meteohub,2013-04-27 07:17:00,
2013-04-27 03:22:00,34.0,30.2,30.43,WNW,298,0.0,0.0,86,0.00,,,0.00,0.0,meteohub,2013-04-27 07:22:00,
2013-04-27 03:27:00,34.0,30.2,30.43,WNW,298,0.0,0.0,86,0.00,,,0.00,0.0,meteohub,2013-04-27 07:27:00,
2013-04-27 03:32:00,33.8,31.6,30.43,WNW,298,0.0,0.0,92,0.00,,,0.00,0.0,meteohub,2013-04-27 07:32:00,
2013-04-27 03:37:00,33.6,29.8,30.43,WNW,298,0.0,0.0,86,0.00,,,0.00,0.0,meteohub,2013-04-27 07:37:00,
2013-04-27 03:42:00,33.6,29.8,30.43,WNW,298,0.0,0.0,86,0.00,,,0.00,0.0,meteohub,2013-04-27 07:42:00,
2013-04-27 03:47:00,33.6,29.8,30.43,WNW,298,0.0,0.0,86,0.00,,,0.00,0.0,meteohub,2013-04-27 07:47:00,
2013-04-27 03:52:00,33.4,29.7,30.43,WNW,298,0.0,0.0,86,0.00,,,0.00,0.0,meteohub,2013-04-27 07:52:00,
2013-04-27 03:57:00,33.4,29.7,30.43,WNW,298,0.0,0.0,86,0.00,,,0.00,0.0,meteohub,2013-04-27 07:57:00,
2013-04-27 04:02:00,33.4,30.0,30.43,WNW,298,0.0,0.0,87,0.00,,,0.00,0.0,meteohub,2013-04-27 08:02:00,
2013-04-27 04:07:00,33.3,29.8,30.43,WNW,298,0.0,0.0,87,0.00,,,0.00,0.0,meteohub,2013-04-27 08:07:00,
2013-04-27 04:12:00,33.3,29.5,30.43,WNW,298,0.0,0.0,86,0.00,,,0.00,0.0,meteohub,2013-04-27 08:12:00,
2013-04-27 04:17:00,33.3,29.8,30.43,WNW,298,0.0,1.0,87,0.00,,,0.00,0.0,meteohub,2013-04-27 08:17:00,
2013-04-27 04:22:00,33.3,29.8,30.43,WNW,298,0.0,1.0,87,0.00,,,0.00,0.0,meteohub,2013-04-27 08:22:00,
2013-04-27 04:27:00,33.1,29.7,30.43,WNW,298,0.0,1.0,87,0.00,,,0.00,0.0,meteohub,2013-04-27 08:27:00,
2013-04-27 04:32:00,33.1,29.7,30.43,WNW,298,0.0,1.0,87,0.00,,,0.00,0.0,meteohub,2013-04-27 08:32:00,
2013-04-27 04:37:00,33.1,29.7,30.43,WNW,298,0.0,1.0,87,0.00,,,0.00,0.0,meteohub,2013-04-27 08:37:00,
2013-04-27 04:42:00,33.1,29.7,30.43,WNW,298,0.0,0.0,87,0.00,,,0.00,0.0,meteohub,2013-04-27 08:42:00,
2013-04-27 04:47:00,32.9,29.5,30.43,WNW,298,0.0,0.0,87,0.00,,,0.00,0.0,meteohub,2013-04-27 08:47:00,
2013-04-27 04:52:00,32.7,29.5,30.43,WNW,298,0.0,0.0,88,0.00,,,0.00,0.0,meteohub,2013-04-27 08:52:00,
2013-04-27 04:57:00,32.7,29.5,30.43,WNW,298,0.0,0.0,88,0.00,,,0.00,0.0,meteohub,2013-04-27 08:57:00,
2013-04-27 05:02:00,32.7,29.5,30.43,WNW,298,0.0,0.0,88,0.00,,,0.00,0.0,meteohub,2013-04-27 09:02:00,
2013-04-27 05:07:00,32.5,29.3,30.43,WNW,298,0.0,0.0,88,0.00,,,0.00,0.0,meteohub,2013-04-27 09:07:00,
2013-04-27 05:12:00,32.5,29.3,30.43,WNW,298,0.0,0.0,88,0.00,,,0.00,0.0,meteohub,2013-04-27 09:12:00,
2013-04-27 05:17:00,32.4,29.1,30.43,WNW,298,0.0,0.0,88,0.00,,,0.00,0.0,meteohub,2013-04-27 09:17:00,
2013-04-27 05:22:00,32.4,29.1,30.43,WNW,298,0.0,0.0,88,0.00,,,0.00,0.0,meteohub,2013-04-27 09:22:00,
2013-04-27 05:27:00,32.4,29.1,30.43,WNW,298,0.0,0.0,88,0.00,,,0.00,0.0,meteohub,2013-04-27 09:27:00,
2013-04-27 05:32:00,32.2,28.9,30.43,WNW,298,0.0,0.0,88,0.00,,,0.00,0.0,meteohub,2013-04-27 09:32:00,
2013-04-27 05:37:00,32.2,28.9,30.43,WNW,298,0.0,0.0,88,0.00,,,0.00,0.0,meteohub,2013-04-27 09:37:00,
2013-04-27 05:42:00,32.2,28.9,30.43,WNW,298,0.0,0.0,88,0.00,,,0.00,0.0,meteohub,2013-04-27 09:42:00,
2013-04-27 05:47:00,32.0,28.9,30.43,WNW,298,0.0,0.0,88,0.00,,,0.00,0.0,meteohub,2013-04-27 09:47:00,
2013-04-27 05:52:00,31.8,28.8,30.43,WNW,298,0.0,0.0,88,0.00,,,0.00,0.0,meteohub,2013-04-27 09:52:00,
2013-04-27 05:57:00,31.8,28.8,30.43,WNW,298,0.0,0.0,88,0.00,,,0.00,0.0,meteohub,2013-04-27 09:57:00,
2013-04-27 06:02:00,31.6,28.6,30.43,WNW,298,0.0,0.0,88,0.00,,,0.00,5.0,meteohub,2013-04-27 10:02:00,
2013-04-27 06:07:00,31.6,28.8,30.43,WNW,298,0.0,0.0,89,0.00,,,0.00,9.0,meteohub,2013-04-27 10:07:00,
2013-04-27 06:12:00,31.6,28.8,30.43,WNW,298,0.0,0.0,89,0.00,,,0.00,12.0,meteohub,2013-04-27 10:12:00,
2013-04-27 06:18:00,31.6,28.8,30.43,WNW,298,0.0,0.0,89,0.00,,,0.00,18.0,meteohub,2013-04-27 10:18:00,
2013-04-27 06:23:00,31.6,28.8,30.43,WNW,298,0.0,0.0,89,0.00,,,0.00,21.0,meteohub,2013-04-27 10:23:00,
2013-04-27 06:28:00,31.5,28.6,30.43,WNW,298,0.0,0.0,89,0.00,,,0.00,28.0,meteohub,2013-04-27 10:28:00,
2013-04-27 06:34:00,31.6,28.8,30.43,WNW,298,0.0,0.0,89,0.00,,,0.00,35.0,meteohub,2013-04-27 10:34:00,
2013-04-27 06:39:00,31.6,28.8,30.44,WNW,298,0.0,0.0,89,0.00,,,0.00,40.0,meteohub,2013-04-27 10:39:00,
2013-04-27 06:44:00,31.8,28.9,30.44,WNW,298,0.0,0.0,89,0.00,,,0.00,42.0,meteohub,2013-04-27 10:44:00,
2013-04-27 06:50:00,32.0,29.5,30.44,WNW,298,0.0,0.0,90,0.00,,,0.00,44.0,meteohub,2013-04-27 10:50:00,
2013-04-27 06:55:00,32.2,29.7,30.45,WNW,298,0.0,0.0,90,0.00,,,0.00,42.0,meteohub,2013-04-27 10:55:00,
2013-04-27 07:00:00,32.5,30.0,30.45,WNW,298,0.0,0.0,90,0.00,,,0.00,42.0,meteohub,2013-04-27 11:00:00,
2013-04-27 07:06:00,32.7,30.2,30.45,WNW,298,0.0,1.0,90,0.00,,,0.00,39.0,meteohub,2013-04-27 11:06:00,
2013-04-27 07:11:00,33.3,30.9,30.45,WNW,298,0.0,1.0,91,0.00,,,0.00,37.0,meteohub,2013-04-27 11:11:00,
2013-04-27 07:17:00,33.6,31.3,30.45,WNW,298,0.0,1.0,91,0.00,,,0.00,37.0,meteohub,2013-04-27 11:17:00,
2013-04-27 07:22:00,34.0,31.6,30.45,WNW,298,0.0,1.0,91,0.00,,,0.00,39.0,meteohub,2013-04-27 11:22:00,
2013-04-27 07:27:00,34.3,32.0,30.45,WNW,298,0.0,1.0,91,0.00,,,0.00,42.0,meteohub,2013-04-27 11:27:00,
2013-04-27 07:32:00,34.7,32.4,30.45,WNW,298,0.0,1.0,91,0.00,,,0.00,44.0,meteohub,2013-04-27 11:32:00,
2013-04-27 07:37:00,35.1,32.7,30.45,WNW,298,0.0,1.0,91,0.00,,,0.00,46.0,meteohub,2013-04-27 11:37:00,
2013-04-27 07:42:00,35.4,33.1,30.45,WNW,298,0.0,2.0,91,0.00,,,0.00,47.0,meteohub,2013-04-27 11:42:00,
2013-04-27 07:47:00,36.0,33.6,30.45,WNW,297,1.0,2.0,91,0.00,,,0.00,49.0,meteohub,2013-04-27 11:47:00,
2013-04-27 07:52:00,36.3,34.0,30.45,West,277,1.0,2.0,91,0.00,,,0.00,51.0,meteohub,2013-04-27 11:52:00,
2013-04-27 07:57:00,36.9,34.2,30.45,NE,34,1.0,3.0,90,0.00,,,0.00,53.0,meteohub,2013-04-27 11:57:00,
2013-04-27 08:02:00,37.4,34.5,30.45,NE,44,1.0,3.0,89,0.00,,,0.00,53.0,meteohub,2013-04-27 12:02:00,
2013-04-27 08:07:00,37.9,34.7,30.45,North,5,1.0,3.0,88,0.00,,,0.00,58.0,meteohub,2013-04-27 12:07:00,
2013-04-27 08:12:00,38.5,34.9,30.45,ENE,63,1.0,3.0,87,0.00,,,0.00,65.0,meteohub,2013-04-27 12:12:00,
2013-04-27 08:17:00,39.0,34.9,30.45,NNW,328,0.0,4.0,85,0.00,,,0.00,69.0,meteohub,2013-04-27 12:17:00,
2013-04-27 08:22:00,39.6,35.1,30.45,WNW,284,0.0,4.0,84,0.00,,,0.00,70.0,meteohub,2013-04-27 12:22:00,
2013-04-27 08:27:00,40.5,35.8,30.45,WNW,288,1.0,4.0,83,0.00,,,0.00,67.0,meteohub,2013-04-27 12:27:00,
2013-04-27 08:32:00,41.2,35.4,30.45,NW,321,0.0,4.0,80,0.00,,,0.00,76.0,meteohub,2013-04-27 12:32:00,
2013-04-27 08:37:00,41.7,35.8,30.45,NE,44,0.0,3.0,79,0.00,,,0.00,90.0,meteohub,2013-04-27 12:37:00,
2013-04-27 08:42:00,42.6,35.6,30.45,NE,54,1.0,3.0,76,0.00,,,0.00,97.0,meteohub,2013-04-27 12:42:00,
2013-04-27 08:47:00,43.3,35.6,30.45,NE,53,0.0,3.0,74,0.00,,,0.00,86.0,meteohub,2013-04-27 12:47:00,
2013-04-27 08:53:00,44.1,35.2,30.45,WNW,303,0.0,3.0,71,0.00,,,0.00,84.0,meteohub,2013-04-27 12:53:00,
2013-04-27 08:58:00,45.0,35.8,30.45,East,88,0.0,4.0,70,0.00,,,0.00,84.0,meteohub,2013-04-27 12:58:00,
2013-04-27 09:03:00,45.7,35.8,30.45,ENE,68,0.0,4.0,68,0.00,,,0.00,88.0,meteohub,2013-04-27 13:03:00,
2013-04-27 09:09:00,46.4,34.9,30.45,SE,138,0.0,4.0,64,0.00,,,0.00,378.0,meteohub,2013-04-27 13:09:00,
2013-04-27 09:14:00,47.1,34.3,30.45,WNW,300,2.0,4.0,61,0.00,,,0.00,417.0,meteohub,2013-04-27 13:14:00,
2013-04-27 09:19:00,47.8,35.1,30.45,SW,218,0.0,5.0,61,0.00,,,0.00,287.0,meteohub,2013-04-27 13:19:00,
2013-04-27 09:25:00,48.6,36.1,30.45,SW,219,0.0,5.0,62,0.00,,,0.00,531.0,meteohub,2013-04-27 13:25:00,
2013-04-27 09:30:00,49.5,36.1,30.45,NNE,13,2.0,5.0,60,0.00,,,0.00,519.0,meteohub,2013-04-27 13:30:00,
2013-04-27 09:35:00,49.5,35.8,30.45,NNE,30,2.0,4.0,59,0.00,,,0.00,464.0,meteohub,2013-04-27 13:35:00,
2013-04-27 09:40:00,49.8,36.1,30.45,NNE,16,3.0,4.0,59,0.00,,,0.00,292.0,meteohub,2013-04-27 13:40:00,
2013-04-27 09:48:00,50.2,36.3,30.45,WNW,290,0.0,4.0,59,0.00,,,0.00,290.0,meteohub,2013-04-27 13:48:00,
2013-04-27 09:53:00,51.3,38.3,30.44,ENE,74,1.0,5.0,61,0.00,,,0.00,338.0,meteohub,2013-04-27 13:53:00,
2013-04-27 09:59:00,51.6,37.8,30.44,East,101,0.0,5.0,59,0.00,,,0.00,350.0,meteohub,2013-04-27 13:59:00,
2013-04-27 10:04:00,52.0,37.6,30.44,SW,219,0.0,5.0,58,0.00,,,0.00,580.0,meteohub,2013-04-27 14:04:00,
2013-04-27 10:09:00,52.3,37.6,30.44,WSW,257,2.0,5.0,57,0.00,,,0.00,431.0,meteohub,2013-04-27 14:09:00,
2013-04-27 10:15:00,52.5,37.2,30.44,SW,229,0.0,5.0,56,0.00,,,0.00,450.0,meteohub,2013-04-27 14:15:00,
2013-04-27 10:20:00,52.9,37.2,30.44,NE,51,1.0,4.0,55,0.00,,,0.00,408.0,meteohub,2013-04-27 14:20:00,
2013-04-27 10:25:00,53.2,37.4,30.44,ENE,74,2.0,4.0,55,0.00,,,0.00,708.0,meteohub,2013-04-27 14:25:00,
2013-04-27 10:31:00,53.8,37.6,30.44,ENE,63,0.0,4.0,54,0.00,,,0.00,691.0,meteohub,2013-04-27 14:31:00,
2013-04-27 10:36:00,53.8,37.0,30.44,SSW,198,0.0,3.0,53,0.00,,,0.00,724.0,meteohub,2013-04-27 14:36:00,
2013-04-27 10:41:00,54.0,35.8,30.44,SW,236,1.0,3.0,50,0.00,,,0.00,765.0,meteohub,2013-04-27 14:41:00,
2013-04-27 10:46:00,54.3,36.1,30.44,SSW,198,0.0,3.0,50,0.00,,,0.00,779.0,meteohub,2013-04-27 14:46:00,
2013-04-27 10:52:00,54.9,34.5,30.44,South,186,0.0,3.0,46,0.00,,,0.00,812.0,meteohub,2013-04-27 14:52:00,
2013-04-27 10:57:00,55.0,34.7,30.43,South,171,0.0,7.0,46,0.00,,,0.00,817.0,meteohub,2013-04-27 14:57:00,
2013-04-27 11:02:00,55.8,34.7,30.43,NNW,331,0.0,7.0,45,0.00,,,0.00,823.0,meteohub,2013-04-27 15:02:00,
2013-04-27 11:07:00,56.3,35.2,30.43,WNW,288,1.0,7.0,45,0.00,,,0.00,838.0,meteohub,2013-04-27 15:07:00,
2013-04-27 11:12:00,56.8,35.8,30.43,WSW,250,0.0,7.0,45,0.00,,,0.00,844.0,meteohub,2013-04-27 15:12:00,
2013-04-27 11:17:00,56.8,35.2,30.43,SSW,213,4.0,7.0,44,0.00,,,0.00,838.0,meteohub,2013-04-27 15:17:00,
2013-04-27 11:22:00,56.7,35.1,30.43,North,355,4.0,7.0,44,0.00,,,0.00,824.0,meteohub,2013-04-27 15:22:00,
2013-04-27 11:27:00,56.7,34.3,30.43,South,186,0.0,7.0,43,0.00,,,0.00,837.0,meteohub,2013-04-27 15:27:00,
2013-04-27 11:33:00,56.7,33.8,30.43,West,269,2.0,7.0,42,0.00,,,0.00,837.0,meteohub,2013-04-27 15:33:00,
2013-04-27 11:38:00,57.2,34.9,30.42,West,279,2.0,7.0,43,0.00,,,0.00,860.0,meteohub,2013-04-27 15:38:00,
2013-04-27 11:43:00,57.7,31.6,30.42,SW,221,1.0,7.0,37,0.00,,,0.00,867.0,meteohub,2013-04-27 15:43:00,
2013-04-27 11:49:00,58.3,32.2,30.41,WNW,300,3.0,7.0,37,0.00,,,0.00,875.0,meteohub,2013-04-27 15:49:00,
2013-04-27 11:54:00,58.5,32.9,30.41,NW,319,2.0,7.0,38,0.00,,,0.00,882.0,meteohub,2013-04-27 15:54:00,
2013-04-27 11:59:00,58.6,31.1,30.41,NNE,17,2.0,7.0,35,0.00,,,0.00,886.0,meteohub,2013-04-27 15:59:00,
2013-04-27 12:05:00,58.6,31.1,30.41,NNE,28,1.0,7.0,35,0.00,,,0.00,893.0,meteohub,2013-04-27 16:05:00,
2013-04-27 12:10:00,59.4,33.1,30.40,WSW,257,0.0,7.0,37,0.00,,,0.00,898.0,meteohub,2013-04-27 16:10:00,
2013-04-27 12:15:00,60.1,30.9,30.40,East,88,0.0,7.0,33,0.00,,,0.00,900.0,meteohub,2013-04-27 16:15:00,
2013-04-27 12:21:00,60.3,31.8,30.40,NW,313,1.0,6.0,34,0.00,,,0.00,902.0,meteohub,2013-04-27 16:21:00,
2013-04-27 12:26:00,60.3,31.8,30.40,NE,51,1.0,6.0,34,0.00,,,0.00,905.0,meteohub,2013-04-27 16:26:00,
2013-04-27 12:31:00,60.3,31.1,30.40,WNW,287,1.0,6.0,33,0.00,,,0.00,909.0,meteohub,2013-04-27 16:31:00,
2013-04-27 12:37:00,60.1,30.2,30.38,NW,311,4.0,6.0,32,0.00,,,0.00,912.0,meteohub,2013-04-27 16:37:00,
2013-04-27 12:42:00,60.4,32.7,30.39,West,266,2.0,6.0,35,0.00,,,0.00,916.0,meteohub,2013-04-27 16:42:00,
2013-04-27 12:47:00,60.3,31.8,30.38,WSW,245,4.0,7.0,34,0.00,,,0.00,916.0,meteohub,2013-04-27 16:47:00,
2013-04-27 12:52:00,60.4,30.4,30.38,ENE,67,1.0,7.0,32,0.00,,,0.00,912.0,meteohub,2013-04-27 16:52:00,
2013-04-27 12:57:00,61.0,30.2,30.38,NNW,345,1.0,7.0,31,0.00,,,0.00,916.0,meteohub,2013-04-27 16:57:00,
2013-04-27 13:02:00,61.3,34.9,30.38,West,275,4.0,7.0,37,0.00,,,0.00,921.0,meteohub,2013-04-27 17:02:00,
2013-04-27 13:07:00,61.3,28.8,30.38,West,261,0.0,7.0,29,0.00,,,0.00,921.0,meteohub,2013-04-27 17:07:00,
2013-04-27 13:13:00,61.3,31.3,30.38,WNW,295,6.0,9.0,32,0.00,,,0.00,865.0,meteohub,2013-04-27 17:13:00,
2013-04-27 13:18:00,61.9,30.0,30.37,NNW,327,3.0,9.0,30,0.00,,,0.00,884.0,meteohub,2013-04-27 17:18:00,
2013-04-27 13:23:00,62.1,30.2,30.37,SW,214,1.0,9.0,30,0.00,,,0.00,884.0,meteohub,2013-04-27 17:23:00,
2013-04-27 13:29:00,62.1,33.4,30.37,West,280,1.0,9.0,34,0.00,,,0.00,788.0,meteohub,2013-04-27 17:29:00,
2013-04-27 13:34:00,62.4,32.9,30.37,SSW,201,4.0,7.0,33,0.00,,,0.00,861.0,meteohub,2013-04-27 17:34:00,
2013-04-27 13:39:00,62.6,32.4,30.37,East,93,3.0,7.0,32,0.00,,,0.00,898.0,meteohub,2013-04-27 17:39:00,
2013-04-27 13:45:00,63.0,29.3,30.37,West,275,1.0,7.0,28,0.00,,,0.00,907.0,meteohub,2013-04-27 17:45:00,
2013-04-27 13:50:00,63.0,33.4,30.36,NW,305,2.0,7.0,33,0.00,,,0.00,902.0,meteohub,2013-04-27 17:50:00,
2013-04-27 13:55:00,63.1,33.6,30.36,NNW,331,3.0,7.0,33,0.00,,,0.00,926.0,meteohub,2013-04-27 17:55:00,
2013-04-27 14:00:00,63.0,30.2,30.36,SSW,196,4.0,7.0,29,0.00,,,0.00,301.0,meteohub,2013-04-27 18:00:00,
2013-04-27 14:06:00,62.4,29.7,30.36,WNW,292,2.0,7.0,29,0.00,,,0.00,909.0,meteohub,2013-04-27 18:06:00,
2013-04-27 14:11:00,62.8,30.0,30.35,East,84,2.0,7.0,29,0.00,,,0.00,889.0,meteohub,2013-04-27 18:11:00,
2013-04-27 14:16:00,63.1,32.7,30.35,ENE,58,2.0,8.0,32,0.00,,,0.00,874.0,meteohub,2013-04-27 18:16:00,
2013-04-27 14:22:00,63.5,30.7,30.35,WSW,240,4.0,8.0,29,0.00,,,0.00,858.0,meteohub,2013-04-27 18:22:00,
2013-04-27 14:27:00,63.7,31.6,30.35,SE,146,4.0,8.0,30,0.00,,,0.00,786.0,meteohub,2013-04-27 18:27:00,
2013-04-27 14:32:00,63.9,28.2,30.35,East,88,2.0,10.0,26,0.00,,,0.00,807.0,meteohub,2013-04-27 18:32:00,
2013-04-27 14:37:00,64.0,29.3,30.34,WNW,286,1.0,10.0,27,0.00,,,0.00,821.0,meteohub,2013-04-27 18:37:00,
2013-04-27 14:42:00,64.6,31.6,30.34,WNW,284,2.0,10.0,29,0.00,,,0.00,775.0,meteohub,2013-04-27 18:42:00,
2013-04-27 14:47:00,64.9,32.0,30.34,NE,37,2.0,10.0,29,0.00,,,0.00,788.0,meteohub,2013-04-27 18:47:00,
2013-04-27 14:52:00,65.1,32.0,30.34,West,281,7.0,7.0,29,0.00,,,0.00,831.0,meteohub,2013-04-27 18:52:00,
2013-04-27 14:57:00,65.5,28.8,30.33,NW,311,2.0,6.0,25,0.00,,,0.00,807.0,meteohub,2013-04-27 18:57:00,
2013-04-27 15:02:00,65.7,29.8,30.33,West,269,2.0,11.0,26,0.00,,,0.00,751.0,meteohub,2013-04-27 19:02:00,
2013-04-27 15:07:00,65.8,30.9,30.33,West,280,0.0,11.0,27,0.00,,,0.00,605.0,meteohub,2013-04-27 19:07:00,
2013-04-27 15:12:00,65.8,28.9,30.32,NW,306,2.0,11.0,25,0.00,,,0.00,782.0,meteohub,2013-04-27 19:12:00,
2013-04-27 15:17:00,65.8,30.9,30.32,NW,310,4.0,7.0,27,0.00,,,0.00,693.0,meteohub,2013-04-27 19:17:00,
2013-04-27 15:22:00,65.8,30.0,30.32,NW,307,2.0,7.0,26,0.00,,,0.00,610.0,meteohub,2013-04-27 19:22:00,
2013-04-27 15:28:00,65.8,30.9,30.32,WSW,241,0.0,7.0,27,0.00,,,0.00,823.0,meteohub,2013-04-27 19:28:00,
2013-04-27 15:33:00,66.4,30.4,30.32,WNW,292,4.0,9.0,26,0.00,,,0.00,879.0,meteohub,2013-04-27 19:33:00,
2013-04-27 15:38:00,66.4,33.1,30.31,WSW,237,1.0,9.0,29,0.00,,,0.00,577.0,meteohub,2013-04-27 19:38:00,
2013-04-27 15:44:00,66.0,31.1,30.31,NW,316,3.0,7.0,27,0.00,,,0.00,334.0,meteohub,2013-04-27 19:44:00,
2013-04-27 15:49:00,65.7,33.4,30.31,SSE,147,0.0,7.0,30,0.00,,,0.00,309.0,meteohub,2013-04-27 19:49:00,
2013-04-27 15:54:00,65.1,32.0,30.31,WSW,244,0.0,11.0,29,0.00,,,0.00,239.0,meteohub,2013-04-27 19:54:00,
2013-04-27 16:00:00,65.1,32.9,30.31,WSW,250,1.0,6.0,30,0.00,,,0.00,271.0,meteohub,2013-04-27 20:00:00,
2013-04-27 16:05:00,64.8,34.2,30.30,NNW,343,4.0,6.0,32,0.00,,,0.00,765.0,meteohub,2013-04-27 20:05:00,
2013-04-27 16:10:00,65.1,36.1,30.30,NW,311,2.0,6.0,34,0.00,,,0.00,766.0,meteohub,2013-04-27 20:10:00,
2013-04-27 16:16:00,65.8,32.7,30.30,West,269,4.0,8.0,29,0.00,,,0.00,373.0,meteohub,2013-04-27 20:16:00,
2013-04-27 16:21:00,65.8,34.3,30.30,North,5,1.0,8.0,31,0.00,,,0.00,239.0,meteohub,2013-04-27 20:21:00,
2013-04-27 16:26:00,65.7,34.2,30.30,NNW,336,0.0,8.0,31,0.00,,,0.00,207.0,meteohub,2013-04-27 20:26:00,
2013-04-27 16:31:00,65.3,33.1,30.30,WNW,300,0.0,8.0,30,0.00,,,0.00,174.0,meteohub,2013-04-27 20:31:00,
2013-04-27 16:37:00,64.9,35.1,30.29,NNW,344,0.0,8.0,33,0.00,,,0.00,142.0,meteohub,2013-04-27 20:37:00,
2013-04-27 16:42:00,64.8,34.2,30.29,WSW,240,0.0,5.0,32,0.00,,,0.00,214.0,meteohub,2013-04-27 20:42:00,
2013-04-27 16:47:00,64.6,36.3,30.29,WSW,240,0.0,5.0,35,0.00,,,0.00,181.0,meteohub,2013-04-27 20:47:00,
2013-04-27 16:52:00,64.4,33.1,30.29,WNW,284,0.0,3.0,31,0.00,,,0.00,211.0,meteohub,2013-04-27 20:52:00,
2013-04-27 16:57:00,64.2,32.9,30.29,WNW,284,0.0,3.0,31,0.00,,,0.00,246.0,meteohub,2013-04-27 20:57:00,
2013-04-27 17:02:00,64.2,32.9,30.29,WNW,284,0.0,3.0,31,0.00,,,0.00,192.0,meteohub,2013-04-27 21:02:00,
2013-04-27 17:07:00,64.2,34.5,30.29,WNW,284,0.0,3.0,33,0.00,,,0.00,128.0,meteohub,2013-04-27 21:07:00,
2013-04-27 17:12:00,64.2,34.5,30.28,WSW,243,4.0,4.0,33,0.00,,,0.00,176.0,meteohub,2013-04-27 21:12:00,
2013-04-27 17:17:00,64.0,35.8,30.28,West,279,0.0,5.0,35,0.00,,,0.00,178.0,meteohub,2013-04-27 21:17:00,
2013-04-27 17:22:00,64.0,36.5,30.29,NE,35,1.0,5.0,36,0.00,,,0.00,181.0,meteohub,2013-04-27 21:22:00,
2013-04-27 17:28:00,64.0,36.5,30.29,NNE,21,0.0,5.0,36,0.00,,,0.00,199.0,meteohub,2013-04-27 21:28:00,
2013-04-27 17:33:00,64.2,36.7,30.28,West,261,3.0,5.0,36,0.00,,,0.00,165.0,meteohub,2013-04-27 21:33:00,
2013-04-27 17:38:00,64.2,36.7,30.28,West,265,1.0,5.0,36,0.00,,,0.00,165.0,meteohub,2013-04-27 21:38:00,
2013-04-27 17:43:00,64.2,36.7,30.28,West,265,0.0,4.0,36,0.00,,,0.00,141.0,meteohub,2013-04-27 21:43:00,
2013-04-27 17:49:00,64.2,36.0,30.28,ENE,76,2.0,4.0,35,0.00,,,0.00,120.0,meteohub,2013-04-27 21:49:00,
2013-04-27 17:54:00,64.0,35.8,30.28,ENE,76,0.0,2.0,35,0.00,,,0.00,118.0,meteohub,2013-04-27 21:54:00,
2013-04-27 17:59:00,64.0,37.2,30.28,ENE,75,0.0,2.0,37,0.00,,,0.00,107.0,meteohub,2013-04-27 21:59:00,
2013-04-27 18:05:00,64.0,38.7,30.28,ENE,74,0.0,2.0,39,0.00,,,0.00,97.0,meteohub,2013-04-27 22:05:00,
2013-04-27 18:10:00,63.9,36.3,30.28,ENE,74,0.0,2.0,36,0.00,,,0.00,83.0,meteohub,2013-04-27 22:10:00,
2013-04-27 18:15:00,63.7,36.1,30.28,ENE,75,0.0,1.0,36,0.00,,,0.00,69.0,meteohub,2013-04-27 22:15:00,
2013-04-27 18:21:00,63.7,36.9,30.28,ENE,75,0.0,1.0,37,0.00,,,0.00,93.0,meteohub,2013-04-27 22:21:00,
2013-04-27 18:26:00,63.7,36.1,30.28,NNW,336,0.0,1.0,36,0.00,,,0.00,63.0,meteohub,2013-04-27 22:26:00,
2013-04-27 18:31:00,63.7,36.9,30.28,NNW,338,0.0,1.0,37,0.00,,,0.00,105.0,meteohub,2013-04-27 22:31:00,
2013-04-27 18:37:00,63.9,37.0,30.27,North,5,0.0,2.0,37,0.00,,,0.00,104.0,meteohub,2013-04-27 22:37:00,
2013-04-27 18:42:00,63.9,37.8,30.27,NNW,327,0.0,2.0,38,0.00,,,0.00,98.0,meteohub,2013-04-27 22:42:00,
2013-04-27 18:47:00,64.0,37.9,30.27,NNW,328,0.0,2.0,38,0.00,,,0.00,88.0,meteohub,2013-04-27 22:47:00,
2013-04-27 18:52:00,64.0,37.9,30.27,NNE,29,0.0,3.0,38,0.00,,,0.00,83.0,meteohub,2013-04-27 22:52:00,
2013-04-27 18:57:00,64.0,37.9,30.27,NNE,19,0.0,3.0,38,0.00,,,0.00,67.0,meteohub,2013-04-27 22:57:00,
2013-04-27 19:02:00,64.0,36.5,30.27,NNE,13,0.0,3.0,36,0.00,,,0.00,67.0,meteohub,2013-04-27 23:02:00,
2013-04-27 19:07:00,64.0,36.5,30.27,NNW,344,0.0,3.0,36,0.00,,,0.00,46.0,meteohub,2013-04-27 23:07:00,
2013-04-27 19:12:00,63.9,37.8,30.27,NW,310,0.0,3.0,38,0.00,,,0.00,40.0,meteohub,2013-04-27 23:12:00,
2013-04-27 19:17:00,63.9,37.0,30.27,NW,310,0.0,3.0,37,0.00,,,0.00,35.0,meteohub,2013-04-27 23:17:00,
2013-04-27 19:22:00,63.5,36.1,30.27,NW,310,0.0,3.0,36,0.00,,,0.00,30.0,meteohub,2013-04-27 23:22:00,
2013-04-27 19:27:00,63.3,37.2,30.27,NW,310,0.0,3.0,38,0.00,,,0.00,19.0,meteohub,2013-04-27 23:27:00,
2013-04-27 19:32:00,63.1,36.5,30.27,NW,312,1.0,1.0,37,0.00,,,0.00,16.0,meteohub,2013-04-27 23:32:00,
2013-04-27 19:38:00,63.0,38.8,30.27,NW,312,0.0,1.0,41,0.00,,,0.00,12.0,meteohub,2013-04-27 23:38:00,
2013-04-27 19:43:00,62.6,39.7,30.27,NW,312,0.0,1.0,43,0.00,,,0.00,7.0,meteohub,2013-04-27 23:43:00,
2013-04-27 19:48:00,62.2,41.7,30.27,NW,312,0.0,1.0,47,0.00,,,0.00,5.0,meteohub,2013-04-27 23:48:00,
2013-04-27 19:54:00,62.1,41.5,30.27,NW,312,0.0,0.0,47,0.00,,,0.00,0.0,meteohub,2013-04-27 23:54:00,
2013-04-27 19:59:00,61.5,38.3,30.27,NW,312,0.0,0.0,42,0.00,,,0.00,0.0,meteohub,2013-04-27 23:59:00,
2013-04-27 20:04:00,61.0,40.1,30.27,NW,312,0.0,0.0,46,0.00,,,0.00,0.0,meteohub,2013-04-28 00:04:00,
2013-04-27 20:10:00,60.4,40.6,30.27,NW,312,0.0,0.0,48,0.00,,,0.00,0.0,meteohub,2013-04-28 00:10:00,
2013-04-27 20:15:00,59.9,40.1,30.27,NW,312,0.0,0.0,48,0.00,,,0.00,0.0,meteohub,2013-04-28 00:15:00,
2013-04-27 20:20:00,59.4,40.3,30.27,NW,312,0.0,0.0,49,0.00,,,0.00,0.0,meteohub,2013-04-28 00:20:00,
2013-04-27 20:26:00,58.8,39.7,30.27,NW,312,0.0,0.0,49,0.00,,,0.00,0.0,meteohub,2013-04-28 00:26:00,
2013-04-27 20:31:00,58.3,39.2,30.27,NW,312,0.0,0.0,49,0.00,,,0.00,0.0,meteohub,2013-04-28 00:31:00,
2013-04-27 20:36:00,57.7,39.7,30.27,NW,312,0.0,0.0,51,0.00,,,0.00,0.0,meteohub,2013-04-28 00:36:00,
2013-04-27 20:42:00,57.2,39.7,30.27,NW,312,0.0,0.0,52,0.00,,,0.00,0.0,meteohub,2013-04-28 00:42:00,
2013-04-27 20:47:00,56.7,39.7,30.27,NW,312,0.0,0.0,53,0.00,,,0.00,0.0,meteohub,2013-04-28 00:47:00,
2013-04-27 20:52:00,56.1,40.1,30.27,NW,312,0.0,0.0,55,0.00,,,0.00,0.0,meteohub,2013-04-28 00:52:00,
2013-04-27 20:57:00,55.8,39.4,30.27,NW,312,0.0,0.0,54,0.00,,,0.00,0.0,meteohub,2013-04-28 00:57:00,
2013-04-27 21:02:00,55.2,39.7,30.27,NW,312,0.0,0.0,56,0.00,,,0.00,0.0,meteohub,2013-04-28 01:02:00,
2013-04-27 21:07:00,54.9,39.4,30.28,NW,312,0.0,0.0,56,0.00,,,0.00,0.0,meteohub,2013-04-28 01:07:00,
2013-04-27 21:12:00,54.5,39.6,30.28,NW,312,0.0,0.0,57,0.00,,,0.00,0.0,meteohub,2013-04-28 01:12:00,
2013-04-27 21:17:00,54.1,39.2,30.28,NW,312,0.0,0.0,57,0.00,,,0.00,0.0,meteohub,2013-04-28 01:17:00,
2013-04-27 21:22:00,53.8,39.4,30.28,NW,312,0.0,0.0,58,0.00,,,0.00,0.0,meteohub,2013-04-28 01:22:00,
2013-04-27 21:27:00,53.2,39.2,30.28,NW,312,0.0,0.0,59,0.00,,,0.00,0.0,meteohub,2013-04-28 01:27:00,
2013-04-27 21:32:00,52.9,39.0,30.28,NW,312,0.0,0.0,59,0.00,,,0.00,0.0,meteohub,2013-04-28 01:32:00,
2013-04-27 21:37:00,52.3,38.5,30.28,NW,312,0.0,0.0,59,0.00,,,0.00,0.0,meteohub,2013-04-28 01:37:00,
2013-04-27 21:42:00,52.0,37.6,30.28,NW,312,0.0,1.0,58,0.00,,,0.00,0.0,meteohub,2013-04-28 01:42:00,
2013-04-27 21:47:00,51.4,37.2,30.28,NW,312,0.0,1.0,58,0.00,,,0.00,0.0,meteohub,2013-04-28 01:47:00,
2013-04-27 21:52:00,51.1,37.2,30.28,NW,312,0.0,0.0,59,0.00,,,0.00,0.0,meteohub,2013-04-28 01:52:00,
2013-04-27 21:57:00,50.9,37.6,30.28,NW,312,0.0,0.0,60,0.00,,,0.00,0.0,meteohub,2013-04-28 01:57:00,
2013-04-27 22:02:00,50.5,37.9,30.28,NW,312,0.0,0.0,62,0.00,,,0.00,0.0,meteohub,2013-04-28 02:02:00,
2013-04-27 22:07:00,50.0,37.9,30.28,NW,312,0.0,0.0,63,0.00,,,0.00,0.0,meteohub,2013-04-28 02:07:00,
2013-04-27 22:12:00,49.6,37.9,30.29,NW,312,0.0,0.0,64,0.00,,,0.00,0.0,meteohub,2013-04-28 02:12:00,
2013-04-27 22:17:00,49.5,37.8,30.29,NW,312,0.0,0.0,64,0.00,,,0.00,0.0,meteohub,2013-04-28 02:17:00,
2013-04-27 22:22:00,49.1,37.4,30.29,NW,312,0.0,0.0,64,0.00,,,0.00,0.0,meteohub,2013-04-28 02:22:00,
2013-04-27 22:27:00,48.9,38.1,30.29,NW,312,0.0,0.0,66,0.00,,,0.00,0.0,meteohub,2013-04-28 02:27:00,
2013-04-27 22:32:00,48.7,38.3,30.29,NW,312,0.0,0.0,67,0.00,,,0.00,0.0,meteohub,2013-04-28 02:32:00,
2013-04-27 22:37:00,48.7,38.7,30.29,NW,312,0.0,0.0,68,0.00,,,0.00,0.0,meteohub,2013-04-28 02:37:00,
2013-04-27 22:42:00,48.6,38.5,30.29,NW,312,0.0,0.0,68,0.00,,,0.00,0.0,meteohub,2013-04-28 02:42:00,
2013-04-27 22:47:00,48.4,38.3,30.29,NW,312,0.0,0.0,68,0.00,,,0.00,0.0,meteohub,2013-04-28 02:47:00,
2013-04-27 22:52:00,48.0,38.3,30.29,NW,312,0.0,0.0,69,0.00,,,0.00,0.0,meteohub,2013-04-28 02:52:00,
2013-04-27 22:57:00,47.7,37.9,30.29,NW,312,0.0,0.0,69,0.00,,,0.00,0.0,meteohub,2013-04-28 02:57:00,
2013-04-27 23:02:00,47.5,37.8,30.29,NW,312,0.0,0.0,69,0.00,,,0.00,0.0,meteohub,2013-04-28 03:02:00,
2013-04-27 23:07:00,47.1,37.4,30.29,NW,312,0.0,0.0,69,0.00,,,0.00,0.0,meteohub,2013-04-28 03:07:00,
2013-04-27 23:12:00,46.9,37.6,30.29,NW,312,0.0,0.0,70,0.00,,,0.00,0.0,meteohub,2013-04-28 03:12:00,
2013-04-27 23:17:00,46.6,37.8,30.28,NW,312,0.0,0.0,71,0.00,,,0.00,0.0,meteohub,2013-04-28 03:17:00,
2013-04-27 23:22:00,46.2,37.8,30.28,NW,312,0.0,0.0,72,0.00,,,0.00,0.0,meteohub,2013-04-28 03:22:00,
2013-04-27 23:27:00,46.0,37.6,30.28,NW,312,0.0,0.0,72,0.00,,,0.00,0.0,meteohub,2013-04-28 03:27:00,
2013-04-27 23:32:00,45.7,37.6,30.29,NW,312,0.0,1.0,73,0.00,,,0.00,0.0,meteohub,2013-04-28 03:32:00,
2013-04-27 23:37:00,45.7,37.9,30.29,NW,312,0.0,1.0,74,0.00,,,0.00,0.0,meteohub,2013-04-28 03:37:00,
2013-04-27 23:42:00,45.3,37.9,30.29,NW,312,0.0,0.0,75,0.00,,,0.00,0.0,meteohub,2013-04-28 03:42:00,
2013-04-27 23:47:00,45.3,37.9,30.29,NW,312,0.0,0.0,75,0.00,,,0.00,0.0,meteohub,2013-04-28 03:47:00,
2013-04-27 23:52:00,45.1,37.9,30.29,NW,312,0.0,0.0,76,0.00,,,0.00,0.0,meteohub,2013-04-28 03:52:00,
2013-04-27 23:57:00,45.0,37.9,30.29,NW,312,0.0,0.0,76,0.00,,,0.00,0.0,meteohub,2013-04-28 03:57:00,